Regional Weather Roundup
Issued by NWS

Home | Current Version | Previous Version | Text Only | Print | Product List | Glossary Off
Versions: 1 2 3 4 5 6 7 8 9 10 11 12 13 14 15 16 17 18 19 20 21 22 23 24 25 26 27

000
ASUS45 KCYS 270310
RWRWY

WYOMING REGIONAL WEATHER ROUNDUP
NATIONAL WEATHER SERVICE CHEYENNE WY
900 PM MDT SUN MAR 26 2017

NOTE:  "FAIR" INDICATES FEW OR NO CLOUDS BELOW 12,000 FEET
WITH NO SIGNIFICANT WEATHER AND/OR OBSTRUCTIONS TO VISIBILITY.

WYZ001-270400-
YELLOWSTONE NATIONAL PARK

CITY           SKY/WX    TMP DP  RH WIND       PRES   REMARKS
LK YELLOWSTONE   N/A     31  19  61 CALM      29.96S
W YELLOWSTONE  NOT AVBL

$$
WYZ002>013-054>058-071-098>099-270400-
NORTHERN WYOMING

CITY           SKY/WX    TMP DP  RH WIND       PRES   REMARKS
JACKSON        CLOUDY    37  27  65 SW14      29.96R WCI  29
CODY           FAIR      48  19  31 W7        29.87R
GREYBULL       MOCLDY    48  32  53 SE5       29.83F
WORLAND        FAIR      48  34  58 E10       29.83F
SHERIDAN       FAIR      43  34  70 S8        29.87R
BUFFALO        FAIR      44  31  60 SW5       29.90S
GILLETTE       FAIR      43  34  70 SE8       29.90S
HULETT         FAIR      39  32  75 SE6       29.93S WCI  35
NEWCASTLE      FAIR      36  32  87 SE5       29.94R WCI  32

$$
WYZ014>020-022>026-101>103-270400-
CENTRAL WYOMING

CITY           SKY/WX    TMP DP  RH WIND       PRES   REMARKS
BIG PINEY      FAIR      32  25  75 W3        29.98R
PINEDALE       MOCLDY    32  23  69 NW6       29.98R WCI  26
DUBOIS         MOCLDY    34  16  47 NW9       29.93R WCI  26
LANDER         FAIR      46  18  32 SW12      29.86R
RIVERTON       FAIR      46  20  35 W9        29.86R
CASPER         MOCLDY    44  33  65 E3        29.90S
DOUGLAS        FAIR      35  31  85 SE6       29.93R WCI  30

$$
WYZ021-027>030-104>119-270400-
SOUTHERN WYOMING

CITY           SKY/WX    TMP DP  RH WIND       PRES   REMARKS
EVANSTON       CLOUDY    37  23  56 W6        30.00S WCI  32
KEMMERER         N/A     32  27  80 W8        30.00S WCI  25
FORT BRIDGER   FAIR      37  27  68 W9        30.02S WCI  30
ROCK SPRINGS   MOCLDY    40  24  53 W10       29.98R WCI  33
DIXON            N/A     37  29  71 E5        29.99S WCI  34
RAWLINS        FAIR      39  20  46 SW7       29.95S WCI  34
SARATOGA       FAIR      34  27  75 SW6       29.98R WCI  29
LARAMIE        MOCLDY    35  29  78 S5        29.96R WCI  31
CHEYENNE       FAIR      37  32  82 CALM      29.97R
TORRINGTON     FAIR      43  35  73 SE3       29.94R
PINE BLUFFS    FAIR      32  32 100 W5        29.97S WCI  27

$$




USA.gov is the U.S. government's official web portal to all federal, state and local government web resources and services.